Tracking 21992 objects as of 29-Nov-2020
HD Live streaming from Space Station
objects crossing your sky now

SCOUT G-1 DEB

Track SCOUT G-1 DEB now!
10-day predictions


NORAD ID: 44571
Int'l Code: 1985-066K
Perigee: 991.7 km
Apogee: 1,248.3 km
Inclination: 90.1 °
Period: 107.5 minutes
Semi major axis: 7490 km
RCS: Unknown
Launch date: August 3, 1985
Source: United States (US)
Launch site: AIR FORCE WESTERN TEST RANGE (AFWTR)

Note: This is SATELLITE DEBRIS
aabbcc
Your satellite tracking list
Your tracking list is empty




NASA's NSSDC Master Catalog

Two Line Element Set (TLE):
1 44571U 85066K   20331.01677243 +.00000225 +00000-0 +37226-3 0  9997
2 44571 090.1384 056.7240 0171265 212.3584 146.6967 13.39043992386761
Source of the keplerian elements: AFSPC